Regional Weather Roundup
Issued by NWS Cleveland, OH

Home | Current Version | Previous Version | Graphics & Text | Print | Product List | Glossary On
Versions: 1 2 3 4 5 6 7 8 9 10 11 12 13 14 15 16 17 18 19 20 21 22 23 24 25 26 27 28 29 30 31 32 33 34 35 36 37 38 39 40 41 42 43 44 45 46 47 48 49 50
000
ASUS41 KCLE 300602
RWRCLE
OHIO REGIONAL WEATHER ROUNDUP
NATIONAL WEATHER SERVICE CLEVELAND, OH
200 AM EDT FRI SEP 30 2016

NOTE: "FAIR" INDICATES FEW OR NO CLOUDS BELOW 12,000 FEET WITH NO
SIGNIFICANT WEATHER AND/OR OBSTRUCTIONS TO VISIBILITY.

OHZ001>008-015>018-024>027-034-035-043-044-300700-
   NORTHWEST OHIO

CITY           SKY/WX    TMP DP  RH WIND       PRES   REMARKS
DEFIANCE       CLOUDY    62  58  86 E8        30.11R
FINDLAY        CLOUDY    62  58  86 NE5       30.08S
TOLEDO EXPRESS LGT RAIN  62  62 100 E9        30.11S
TOLEDO EXEC    CLOUDY    64  62  93 E10       30.12R
LIMA           CLOUDY    59  59 100 NE5       30.09S FOG
$$

OHZ009>014-019>023-028>033-038-089-300700-
   NORTHEAST OHIO

CITY           SKY/WX    TMP DP  RH WIND       PRES   REMARKS
CLE-HOPKINS    CLOUDY    61  57  87 E12       30.14F
CLE-LAKEFRONT  LGT RAIN  61  58  90 NE8       30.13F
CUY CO. ARPT   NOT AVBL
LORAIN-ELYRIA  NOT AVBL
ASHTABULA      CLOUDY    58  58 100 E6        30.21S
AKRON-CANTON   CLOUDY    59  55  87 E14       30.13S
WOOSTER        CLOUDY    59  57  93 E10       30.14R
MANSFIELD      CLOUDY    59  58  96 E15G22    30.08F
YOUNGSTOWN     LGT RAIN  58  55  90 E15G22    30.17F
$$

OHZ042-051>053-060>062-070>072-077>081-300700-
  SOUTHWEST OHIO

CITY           SKY/WX    TMP DP  RH WIND       PRES   REMARKS
CINC-COVINGTON CLOUDY    58  56  93 SE3       30.03F
CINC-LUNKEN    PTCLDY    54  54 100 CALM      30.04F FOG
HAMILTON       CLOUDY    58  55  90 NE6       30.03F
DAYTON         LGT RAIN  57  57 100 NE9       30.07F FOG
WRIGHT-PAT AFB NOT AVBL
DAYTON GENERAL CLOUDY    58  56  93 NE8       30.01F
WILMINGTON     LGT RAIN  57  57 100 CALM      30.03F FOG
$$

OHZ036-037-039>041-045>050-054>059-063>069-073>076-082>088-300700-
  CENTRAL AND SOUTHEAST OHIO

CITY           SKY/WX    TMP DP  RH WIND       PRES   REMARKS
COLUMBUS       LGT RAIN  61  61 100 VRB3      30.05F
OSU AIRPORT    CLOUDY    60  60 100 SW3       30.06S
BOLTON FIELD   NOT AVBL
RICKENBACK AFB CLOUDY    58  58 100 NW3       30.04F
NEWARK         CLOUDY    61  59  93 E6        30.06R
MARION         CLOUDY    60  57  89 NE8       30.05F
LANCASTER      CLOUDY    61  60  97 CALM      30.05F
ZANESVILLE     CLOUDY    61  59  93 NE10      30.04F
NEW PHILLY     LGT RAIN  60  59  96 VRB7      30.12R
$$




USA.gov is the U.S. government's official web portal to all federal, state and local government web resources and services.